TimeCDT,TemperatureF,Dew PointF,Humidity,Sea Level PressureIn,VisibilityMPH,Wind Direction,Wind SpeedMPH,Gust SpeedMPH,PrecipitationIn,Events,Conditions,WindDirDegrees,DateUTC
12:53 AM,46.9,45.0,93,30.03,10.0,Calm,Calm,-,N/A,,Clear,0,2012-10-21 05:53:00
1:53 AM,46.0,44.1,93,30.03,10.0,Calm,Calm,-,N/A,,Clear,0,2012-10-21 06:53:00
2:53 AM,45.0,43.0,93,30.03,10.0,Calm,Calm,-,N/A,,Clear,0,2012-10-21 07:53:00
3:53 AM,45.0,43.0,93,30.04,10.0,Calm,Calm,-,N/A,,Clear,0,2012-10-21 08:53:00
4:53 AM,44.1,42.1,93,30.06,10.0,Calm,Calm,-,N/A,,Clear,0,2012-10-21 09:53:00
5:53 AM,44.1,42.1,93,30.08,10.0,Calm,Calm,-,N/A,,Clear,0,2012-10-21 10:53:00
6:53 AM,44.1,42.1,93,30.10,10.0,Calm,Calm,-,N/A,,Clear,0,2012-10-21 11:53:00
7:53 AM,48.0,46.0,93,30.12,10.0,Calm,Calm,-,N/A,,Clear,0,2012-10-21 12:53:00
8:53 AM,60.1,52.0,75,30.14,10.0,Calm,Calm,-,N/A,,Clear,0,2012-10-21 13:53:00
9:53 AM,66.0,51.1,59,30.14,10.0,ENE,6.9,-,N/A,,Clear,70,2012-10-21 14:53:00
10:53 AM,73.0,53.1,49,30.15,10.0,Variable,3.5,-,N/A,,Clear,0,2012-10-21 15:53:00
11:53 AM,75.9,48.9,38,30.13,10.0,Variable,6.9,-,N/A,,Clear,0,2012-10-21 16:53:00
12:53 PM,79.0,48.9,35,30.11,10.0,North,5.8,-,N/A,,Clear,10,2012-10-21 17:53:00
1:53 PM,80.1,50.0,35,30.09,10.0,NE,8.1,-,N/A,,Clear,50,2012-10-21 18:53:00
2:53 PM,81.0,48.9,33,30.08,10.0,NNE,5.8,-,N/A,,Clear,30,2012-10-21 19:53:00
3:53 PM,81.0,46.0,29,30.07,10.0,NNE,9.2,-,N/A,,Clear,20,2012-10-21 20:53:00
4:53 PM,79.0,48.0,34,30.07,10.0,NE,4.6,-,N/A,,Clear,50,2012-10-21 21:53:00
5:53 PM,70.0,54.0,57,30.08,10.0,Calm,Calm,-,N/A,,Clear,0,2012-10-21 22:53:00
6:53 PM,62.1,54.0,75,30.09,10.0,Calm,Calm,-,N/A,,Clear,0,2012-10-21 23:53:00
7:53 PM,57.9,54.0,87,30.10,10.0,Calm,Calm,-,N/A,,Clear,0,2012-10-22 00:53:00
8:53 PM,55.9,53.1,90,30.11,10.0,Calm,Calm,-,N/A,,Clear,0,2012-10-22 01:53:00
9:53 PM,54.0,51.1,90,30.12,10.0,Calm,Calm,-,N/A,,Clear,0,2012-10-22 02:53:00
10:53 PM,52.0,50.0,93,30.12,10.0,Calm,Calm,-,N/A,,Clear,0,2012-10-22 03:53:00
11:53 PM,51.1,48.9,92,30.12,10.0,Calm,Calm,-,N/A,,Clear,0,2012-10-22 04:53:00